EW1587 Weather Reports


time (UTC)temp
C
wind
direction
speed
KPH
gust
KPH
rain 1hr
cm
rain 24hr
cm
rain mn
cm
humidity
%
barometer
mb
20260506012522 5 345 6.4 16.1 0.00 0.00 0.00 53 1013.5
20260506012020 5 338 4.8 16.1 0.00 0.00 0.00 52 1013.3
20260506011520 5 345 4.8 20.9 0.00 0.00 0.00 52 1013.3
20260506011020 5 335 8.0 17.7 0.00 0.00 0.00 52 1013.3
20260506010519 5 51 6.4 20.9 0.00 0.00 0.00 51 1013.1
20260506010024 6 333 8.0 20.9 0.00 0.00 0.00 50 1013.0
20260506005517 6 12 6.4 22.5 0.00 0.00 0.00 49 1013.0
20260506005017 6 341 8.0 22.5 0.00 0.00 0.00 48 1013.0
20260506004517 6 330 6.4 19.3 0.00 0.00 0.00 48 1013.0
20260506004017 6 34 8.0 24.1 0.00 0.00 0.00 47 1012.9
20260506003517 6 9 11.3 25.7 0.00 0.00 0.00 46 1012.9
20260506003018 6 360 9.7 25.7 0.00 0.00 0.00 46 1012.8
20260506002515 6 349 4.8 19.3 0.00 0.00 0.00 46 1012.8
20260506002015 7 325 6.4 20.9 0.00 0.00 0.00 46 1012.5
20260506001514 7 342 4.8 20.9 0.00 0.00 0.00 46 1012.5
20260506001014 7 26 4.8 16.1 0.00 0.00 0.00 45 1012.5
20260506000514 7 46 8.0 16.1 0.00 0.00 0.00 45 1012.4
20260506000013 7 27 3.2 17.7 0.00 0.00 0.00 45 1012.4
20260505235512 7 49 4.8 20.9 0.00 0.00 0.00 45 1012.4
20260505235012 7 13 6.4 20.9 0.00 0.00 0.00 44 1012.4
20260505234512 7 323 6.4 27.4 0.00 0.00 0.00 44 1012.3
20260505234013 7 325 9.7 25.7 0.00 0.00 0.00 44 1012.3
20260505233510 7 311 4.8 16.1 0.00 0.00 0.00 45 1012.2
20260505233015 7 12 8.0 25.7 0.00 0.00 0.00 44 1012.2
20260505232508 7 46 12.9 25.7 0.00 0.00 0.00 44 1012.2
20260505232008 7 19 6.4 20.9 0.00 0.00 0.00 44 1012.0
20260505231508 8 342 9.7 19.3 0.00 0.00 0.00 43 1012.0
20260505231013 8 351 12.9 24.1 0.00 0.00 0.00 43 1011.9
20260505230508 8 290 8.0 24.1 0.00 0.00 0.00 44 1011.9
20260505230022 8 14 9.7 24.1 0.00 0.00 0.00 43 1012.0
20260505225507 8 323 11.3 24.1 0.00 0.00 0.00 43 1011.9
20260505225007 8 325 8.0 22.5 0.00 0.00 0.00 43 1011.8
20260505224506 8 340 11.3 27.4 0.00 0.00 0.00 42 1011.9
20260505224011 8 333 9.7 20.9 0.00 0.00 0.00 42 1011.8
20260505223506 8 320 4.8 16.1 0.00 0.00 0.00 43 1011.8
20260505223006 8 309 4.8 17.7 0.00 0.00 0.00 43 1011.8
20260505222506 8 326 6.4 27.4 0.00 0.00 0.00 43 1011.8
20260505222006 8 345 11.3 27.4 0.00 0.00 0.00 42 1011.8
20260505221506 8 339 9.7 24.1 0.00 0.00 0.00 41 1011.7
20260505221005 8 349 6.4 24.1 0.00 0.00 0.00 41 1011.6
20260505220505 8 93 11.3 24.1 0.00 0.00 0.00 41 1011.6
20260505220006 8 314 9.7 25.7 0.00 0.00 0.00 41 1011.6
20260505215505 8 278 14.5 25.7 0.00 0.00 0.00 40 1011.5
20260505215005 8 274 9.7 29.0 0.00 0.00 0.00 41 1011.7
20260505214506 8 328 9.7 29.0 0.00 0.00 0.00 40 1011.7
20260505214006 8 274 11.3 22.5 0.00 0.00 0.00 43 1011.8
20260505213503 8 294 6.4 19.3 0.00 0.00 0.00 43 1011.8
20260505213002 8 300 8.0 19.3 0.00 0.00 0.00 45 1011.8
20260505212504 7 340 9.7 30.6 0.00 0.00 0.00 44 1011.9
20260505212002 8 278 20.9 30.6 0.00 0.00 0.00 42 1011.8
20260505211502 8 303 12.9 30.6 0.00 0.00 0.00 43 1011.9
20260505211002 8 293 16.1 30.6 0.00 0.00 0.00 44 1011.8
20260505210601 8 41 8.0 20.9 0.00 0.00 0.00 42 1011.9
20260505210100 8 328 6.4 14.5 0.00 0.00 0.00 42 1011.9
20260505205559 8 248 3.2 14.5 0.00 0.00 0.00 44 1011.9
20260505205100 7 353 8.0 17.7 0.00 0.00 0.00 43 1011.9
20260505204607 7 20 6.4 25.7 0.00 0.00 0.00 43 1012.0
20260505204058 7 315 11.3 25.7 0.00 0.00 0.00 44 1012.0
20260505203559 7 298 8.0 29.0 0.00 0.00 0.00 43 1012.0
20260505203116 7 341 12.9 27.4 0.00 0.00 0.00 43 1012.1
20260505202559 7 326 6.4 20.9 0.00 0.00 0.00 43 1012.0
20260505202057 7 238 6.4 24.1 0.00 0.00 0.00 44 1012.0
20260505201558 7 316 12.9 24.1 0.00 0.00 0.00 44 1012.0
20260505201057 7 298 11.3 22.5 0.00 0.00 0.00 44 1012.1
20260505200600 7 307 8.0 24.1 0.00 0.00 0.00 44 1012.1
20260505200101 8 311 9.7 24.1 0.00 0.00 0.00 43 1012.1
20260505195558 8 44 4.8 22.5 0.00 0.00 0.00 44 1012.0
20260505195056 7 283 8.0 24.1 0.00 0.00 0.00 43 1012.0
20260505194610 8 330 9.7 27.4 0.00 0.00 0.00 44 1012.1
20260505194059 7 297 9.7 27.4 0.00 0.00 0.00 43 1011.9
20260505194005 8 338 11.3 27.4 0.00 0.00 0.00 43 1012.0
20260505193555 7 296 6.4 25.7 0.00 0.00 0.00 43 1012.0
20260505193512 7 319 6.4 25.7 0.00 0.00 0.00 42 1012.0
20260505193107 8 313 11.3 25.7 0.00 0.00 0.00 43 1012.0
20260505192554 7 280 9.7 25.7 0.00 0.00 0.00 43 1012.0
20260505192054 7 349 9.7 25.7 0.00 0.00 0.00 43 1012.0
20260505191554 7 302 9.7 27.4 0.00 0.00 0.00 43 1012.1
20260505191053 7 349 12.9 27.4 0.00 0.00 0.00 43 1012.1
20260505190557 7 85 4.8 22.5 0.00 0.00 0.00 44 1011.9
20260505190053 7 356 11.3 22.5 0.00 0.00 0.00 43 1012.1
20260505185556 7 324 8.0 19.3 0.00 0.00 0.00 43 1012.0
20260505185052 7 323 8.0 25.7 0.00 0.00 0.00 43 1012.0
20260505184553 7 281 6.4 27.4 0.00 0.00 0.00 44 1012.1
20260505184054 7 297 12.9 27.4 0.00 0.00 0.00 44 1012.0
20260505183555 7 270 14.5 25.7 0.00 0.00 0.00 43 1012.0
20260505183058 7 328 9.7 25.7 0.00 0.00 0.00 46 1012.0
20260505182550 7 291 9.7 25.7 0.00 0.00 0.00 46 1012.0
20260505182050 7 303 8.0 24.1 0.00 0.00 0.00 45 1012.0
20260505181550 7 337 11.3 22.5 0.00 0.00 0.00 45 1012.0
20260505181049 7 10 8.0 22.5 0.00 0.00 0.00 45 1012.0
20260505180549 7 250 9.7 22.5 0.00 0.00 0.00 44 1011.9
20260505180051 7 300 9.7 27.4 0.00 0.00 0.00 44 1011.9
20260505175548 7 328 9.7 27.4 0.00 0.00 0.00 46 1011.9
20260505175048 7 280 12.9 25.7 0.00 0.00 0.00 46 1011.8
20260505174648 7 269 12.9 25.7 0.00 0.00 0.00 46 1011.8
20260505174048 7 262 12.9 22.5 0.00 0.00 0.00 44 1011.8
20260505173547 7 98 9.7 29.0 0.00 0.00 0.00 44 1011.9
20260505173050 7 6 6.4 33.8 0.00 0.00 0.00 46 1011.9
20260505172550 7 350 11.3 33.8 0.00 0.00 0.00 44 1011.8
20260505172047 7 250 14.5 30.6 0.00 0.00 0.00 43 1011.7
20260505171547 7 290 14.5 24.1 0.00 0.00 0.00 44 1012.0
20260505171049 7 41 6.4 22.5 0.00 0.00 0.00 46 1012.0
20260505170548 6 357 8.0 24.1 0.00 0.00 0.00 46 1012.0
20260505170046 7 290 9.7 24.1 0.00 0.00 0.00 44 1012.0
20260505165545 7 274 6.4 30.6 0.00 0.00 0.00 43 1012.0
20260505165045 7 292 9.7 30.6 0.00 0.00 0.00 42 1012.0
20260505164557 7 326 11.3 20.9 0.00 0.00 0.00 43 1011.8
20260505164043 7 339 6.4 19.3 0.00 0.00 0.00 45 1011.9
20260505163542 7 317 4.8 19.3 0.00 0.00 0.00 47 1011.9
20260505163048 6 20 8.0 22.5 0.00 0.00 0.00 47 1011.9
20260505162545 7 12 11.3 22.5 0.00 0.00 0.00 45 1011.9
20260505162040 6 47 9.7 20.9 0.00 0.00 0.00 47 1011.9
20260505161543 6 266 8.0 22.5 0.00 0.00 0.00 46 1011.8
20260505161039 6 253 11.3 22.5 0.00 0.00 0.00 46 1011.9
20260505160539 6 56 11.3 19.3 0.00 0.00 0.00 46 1012.0
20260505153048 6 296 8.0 22.5 0.00 0.00 0.00 47 1011.8
20260505152535 5 332 8.0 22.5 0.00 0.00 0.00 48 1011.8
20260505152033 5 29 8.0 20.9 0.00 0.00 0.00 49 1011.8
20260505151541 6 336 9.7 20.9 0.00 0.00 0.00 48 1011.8
20260505151032 6 73 4.8 14.5 0.00 0.00 0.00 49 1011.7
20260505150532 6 309 8.0 14.5 0.00 0.00 0.00 48 1011.7
20260505140524 5 16 3.2 12.9 0.00 0.00 0.00 52 1011.3
20260505125016 2 60 8.0 16.1 0.00 0.00 0.00 54 1010.5
20260505124515 2 347 8.0 14.5 0.00 0.00 0.00 53 1010.5
20260505124017 2 51 8.0 19.3 0.00 0.00 0.00 54 1010.5
20260505123516 2 49 8.0 19.3 0.00 0.00 0.00 55 1010.4
20260505123012 2 352 6.4 16.1 0.00 0.00 0.00 55 1010.4
20260505122511 2 34 8.0 16.1 0.00 0.00 0.00 56 1010.3
20260505122013 2 8 4.8 11.3 0.00 0.00 0.00 56 1010.3
20260505121510 2 13 3.2 12.9 0.00 0.00 0.00 57 1010.1
20260505121010 2 60 1.6 14.5 0.00 0.00 0.00 58 1010.1
20260505120507 2 9 4.8 16.1 0.00 0.00 0.00 58 1010.0
20260505120007 2 349 4.8 12.9 0.00 0.00 0.00 60 1010.0
20260505115505 2 360 3.2 12.9 0.00 0.00 0.00 61 1009.9
20260505115004 1 13 3.2 9.7 0.00 0.00 0.00 64 1009.8
20260505114504 1 33 0.0 4.8 0.00 0.00 0.00 66 1009.9
20260505114004 1 42 1.6 6.4 0.00 0.00 0.00 67 1009.8
20260505113503 1 6 1.6 9.7 0.00 0.00 0.00 68 1009.7
20260505113001 1 351 3.2 9.7 0.00 0.00 0.00 68 1009.6
20260505112502 1 44 3.2 9.7 0.00 0.00 0.00 70 1009.5
20260505112002 1 352 1.6 11.3 0.00 0.00 0.00 71 1009.5
20260505111600 1 309 4.8 11.3 0.00 0.00 0.00 71 1009.4
20260505111102 1 309 1.6 8.0 0.00 0.00 0.00 72 1009.4
20260505110558 1 353 1.6 6.4 0.00 0.00 0.00 72 1009.3
20260505110105 1 13 1.6 8.0 0.00 0.00 0.00 72 1009.3
20260505102007 2 359 4.8 11.3 0.00 0.00 0.00 71 1009.1
20260505101508 2 353 0.0 14.5 0.00 0.00 0.00 71 1009.1
20260505101005 2 357 4.8 14.5 0.00 0.00 0.00 71 1009.1
20260505100506 2 13 4.8 12.9 0.00 0.00 0.00 70 1009.0
20260505100008 2 9 6.4 12.9 0.00 0.00 0.00 70 1009.0
20260505095505 2 29 1.6 14.5 0.00 0.00 0.00 70 1009.1
20260505095002 2 5 6.4 14.5 0.00 0.00 0.00 70 1009.0
20260505094607 2 333 1.6 9.7 0.00 0.00 0.00 70 1009.0
20260505094059 2 33 4.8 11.3 0.00 0.00 0.00 70 1008.9
20260505093558 2 338 3.2 11.3 0.00 0.00 0.00 70 1008.9
20260505093057 2 27 1.6 12.9 0.00 0.00 0.00 69 1008.8
20260505092556 2 319 3.2 12.9 0.00 0.00 0.00 69 1008.7
20260505092050 3 358 3.2 12.9 0.00 0.00 0.00 69 1008.7
20260505091557 3 354 6.4 12.9 0.00 0.00 0.00 69 1008.7
20260505091049 3 349 3.2 11.3 0.00 0.00 0.00 68 1008.7
20260505090548 3 324 1.6 19.3 0.00 0.00 0.00 68 1008.6
20260505090056 3 12 3.2 19.3 0.00 0.00 0.00 67 1008.4
20260505085547 3 332 4.8 19.3 0.00 0.00 0.00 67 1008.4
20260505085047 3 336 4.8 19.3 0.00 0.00 0.00 67 1008.4
20260505084549 3 343 6.4 16.1 0.00 0.00 0.00 67 1008.3
20260505084044 3 343 3.2 11.3 0.00 0.00 0.00 67 1008.3
20260505083544 3 343 4.8 14.5 0.00 0.00 0.00 67 1008.2
20260505083048 3 345 3.2 12.9 0.00 0.00 0.00 67 1008.1
20260505082543 3 309 4.8 11.3 0.00 0.00 0.00 67 1008.0
20260505082044 3 345 4.8 11.3 0.00 0.00 0.00 67 1008.0
20260505081555 3 345 3.2 11.3 0.00 0.00 0.00 67 1008.0
20260505081040 3 349 0.0 11.3 0.00 0.00 0.00 66 1007.9
20260505080541 3 353 4.8 14.5 0.00 0.00 0.00 66 1007.9
20260505080045 3 345 6.4 14.5 0.00 0.00 0.00 66 1007.9
20260505075537 3 309 3.2 12.9 0.00 0.00 0.00 66 1007.9
20260505075111 3 292 4.8 12.9 0.00 0.00 0.00 66 1007.9
20260505074547 3 313 4.8 14.5 0.00 0.00 0.00 66 1007.8
20260505074036 3 260 3.2 14.5 0.00 0.00 0.00 66 1007.8
20260505073535 3 307 4.8 14.5 0.00 0.00 0.00 66 1007.8
20260505073034 3 301 1.6 8.0 0.00 0.00 0.00 66 1007.8
20260505072532 3 259 1.6 14.5 0.00 0.00 0.00 65 1007.9
20260505072032 3 338 1.6 14.5 0.00 0.00 0.00 64 1007.9
20260505071531 3 336 3.2 9.7 0.00 0.00 0.00 64 1007.9
20260505071031 3 299 3.2 11.3 0.00 0.00 0.00 64 1007.9
20260505070531 3 314 1.6 11.3 0.00 0.00 0.00 63 1007.7
20260505070031 3 335 1.6 11.3 0.00 0.00 0.00 63 1007.8
20260505065532 3 323 3.2 12.9 0.00 0.00 0.00 63 1007.7
20260505065030 3 307 3.2 12.9 0.00 0.00 0.00 64 1007.8
20260505064530 3 287 4.8 14.5 0.00 0.00 0.00 64 1007.8
20260505064029 3 296 6.4 14.5 0.00 0.00 0.00 64 1007.9
20260505063527 3 294 3.2 12.9 0.00 0.00 0.00 63 1007.9
20260505063034 3 290 1.6 8.0 0.00 0.00 0.00 63 1007.7
20260505062526 3 263 1.6 11.3 0.00 0.00 0.00 63 1007.6
20260505062026 3 311 3.2 11.3 0.00 0.00 0.00 63 1007.7
20260505061530 3 326 1.6 6.4 0.00 0.00 0.00 62 1007.8
20260505061023 3 309 1.6 8.0 0.00 0.00 0.00 61 1007.8
20260505060522 3 298 0.0 8.0 0.00 0.00 0.00 60 1007.7
20260505060022 4 341 3.2 8.0 0.00 0.00 0.00 60 1007.7
20260505055520 4 1 1.6 11.3 0.00 0.00 0.00 59 1007.6
20260505055020 4 42 4.8 11.3 0.00 0.00 0.00 59 1007.7
20260505054523 4 349 3.2 11.3 0.00 0.00 0.00 59 1007.6
20260505054017 4 355 3.2 12.9 0.00 0.00 0.00 58 1007.6
20260505053517 4 346 1.6 12.9 0.00 0.00 0.00 58 1007.5
20260505053015 4 18 4.8 11.3 0.00 0.00 0.00 58 1007.5
20260505052514 4 336 1.6 8.0 0.00 0.00 0.00 58 1007.4
20260505052012 5 340 0.0 9.7 0.00 0.00 0.00 57 1007.3
20260505051512 5 328 1.6 9.7 0.00 0.00 0.00 56 1007.2
20260505051010 5 300 3.2 9.7 0.00 0.00 0.00 56 1007.3
20260505050509 5 302 1.6 12.9 0.00 0.00 0.00 56 1007.3
20260505041503 6 343 4.8 16.1 0.00 0.00 0.00 53 1006.9
20260505041001 5 347 6.4 14.5 0.00 0.00 0.00 54 1007.0
20260505040501 5 16 4.8 12.9 0.00 0.00 0.00 55 1007.0
20260505035559 6 330 3.2 12.9 0.00 0.00 0.00 57 1006.9
20260505035100 6 27 3.2 9.7 0.00 0.00 0.00 57 1006.9
20260505034558 6 357 4.8 9.7 0.00 0.00 0.00 56 1006.8
20260505034056 6 345 3.2 9.7 0.00 0.00 0.00 56 1006.8
20260505033555 6 328 4.8 14.5 0.00 0.00 0.00 56 1006.8
20260505033055 6 320 3.2 14.5 0.00 0.00 0.00 56 1006.7
20260505032553 6 309 1.6 9.7 0.00 0.00 0.00 55 1006.7
20260505032052 6 349 1.6 16.1 0.00 0.00 0.00 55 1006.7
20260505031552 6 11 1.6 16.1 0.00 0.00 0.00 55 1006.7
20260505031051 6 300 1.6 11.3 0.00 0.00 0.00 55 1006.6
20260505030554 6 26 1.6 11.3 0.00 0.00 0.00 55 1006.6
20260505030051 6 316 1.6 11.3 0.00 0.00 0.00 54 1006.6
20260505025550 6 320 3.2 11.3 0.00 0.00 0.00 54 1006.5
20260505025049 6 295 1.6 8.0 0.00 0.00 0.00 53 1006.4
20260505024605 6 311 1.6 8.0 0.00 0.00 0.00 53 1006.4
20260505024052 6 299 1.6 9.7 0.00 0.00 0.00 52 1006.2
20260505023546 6 328 3.2 11.3 0.00 0.00 0.00 51 1006.2
20260505023045 6 307 3.2 11.3 0.00 0.00 0.00 51 1006.2
20260505022545 6 316 3.2 9.7 0.00 0.00 0.00 51 1006.2
20260505022044 7 302 4.8 14.5 0.00 0.00 0.00 50 1006.1
20260505021601 7 331 3.2 14.5 0.00 0.00 0.00 50 1006.0
20260505021041 7 351 1.6 12.9 0.00 0.00 0.00 50 1005.9
20260505020541 7 290 1.6 12.9 0.00 0.00 0.00 49 1005.8
20260505020046 7 332 3.2 19.3 0.00 0.00 0.00 48 1005.8
20260505015539 7 332 4.8 20.9 0.00 0.00 0.00 48 1005.7
20260505015138 7 302 4.8 20.9 0.00 0.00 0.00 48 1005.7
20260505014539 7 5 3.2 19.3 0.00 0.00 0.00 47 1005.6
20260505014037 7 300 6.4 19.3 0.00 0.00 0.00 47 1005.6
20260505013540 7 302 6.4 19.3 0.00 0.00 0.00 47 1005.5
20260505013035 7 341 3.2 12.9 0.00 0.00 0.00 47 1005.5